Location: Unspecified
(0.0000°N, 0.0000°E)
Time: 21:19:33
(UTC+00:00)

ISS - Pass Details

Date: 22 March 2018
Orbit: 402 x 408 km, 51.6° (Epoch: 20 July)

Event Time Altitude Azimuth Distance (km) Brightness Sun altitude
Rises 18:26:38 0° 236° (SW) 2,330 1.1 -4.9°
Reaches altitude 10° 18:28:59 10° 251° (WSW) 1,470 0.4 -5.5°
Maximum altitude 18:31:40 23° 306° (NW) 921 -1.2 -6.2°
Drops below altitude 10° 18:34:22 10° 1° (N) 1,471 -1.0 -6.9°
Enters shadow 18:40:22 -10° 25° (NNE) 3,766 0.8 -8.4°
